sat.trackr.live / text

‹ back to catalog

STARLINK-33643

NORAD 63381 · 2025-063U

PAYLOAD ACTIVE UNKNOWN

§ Identity

Operator
Country
US
Launch date
2025-03-26
Launch site
AFWTR
Launch vehicle
Mass (kg)
RCS (m²)

Purposes: comms

External: N2YO · Heavens-Above · Gunter

§ Orbital elements

Epoch: 2026-09-20T05:16:38.384544Z

Period
93.85 min
Inclination
53.1590°
Eccentricity
0.0001592
Mean motion
15.34408690 rev/d
Perigee alt
461.6 km
Apogee alt
463.8 km
Semi-major
6,840.8 km
B*
4.6778e-4
RAAN
226.7111°
Arg perigee
74.0320°
Mean anomaly
286.0858°
Rev number
8,457

§ Raw data

STARLINK-336431 63381U 25063U   26263.21988871  .00015465  00000+0  46778-3 0  99952 63381  53.1590 226.7111 0001592  74.0320 286.0858 15.34408690 84570

JSON: /api/v1/satellites/63381 · /tle

For live sub-satellite position, see the globe view (requires WebGL).

§ Visibility from observer

Set your observer location to see the next 7 days of passes ≥ 10°. The values pass through the URL so the page stays shareable.

No JS? Fill the form by hand. The geolocation button needs JavaScript.